Weather History for KGTU - October, 2013

Change the Weather History Date:

Wednesday, October 2, 2013

  Actual Average Record
Temperature  
Mean Temperature 81 °F -  
Max Temperature 89 °F 82 °F 93 °F (2005)
Min Temperature 73 °F 61 °F 50 °F (2011)
Cooling Degree Days 16    
Growing Degree Days 31 (Base 50)    
Moisture  
Dew Point 71 °F    
Average Humidity 82    
Maximum Humidity 94    
Minimum Humidity 46    
Precipitation  
Precipitation 0.00 in - - ()
Sea Level Pressure  
Sea Level Pressure 29.93 in    
Wind  
Wind Speed 8 mph (SSE)    
Max Wind Speed 12 mph    
Max Gust Speed 16 mph    
Visibility 10 miles    
Events      
Averages and records for this station are not official NWS values.
T = Trace of Precipitation, MM = Missing Value Source: NWS Daily Summary

Daily Weather History Graph

Daily Weather History Graph

Search for Another Location

Airport or City:

Trip Planner

Search our weather history database for the weather conditions in past years. The results will help you decide how hot, cold, wet, or windy it might be!

Date:

Astronomy

Oct. 02, 2013 Rise Set
Actual Time 7:25 AM CDT 7:14 PM CDT
Civil Twilight 7:00 AM CDT 7:38 PM CDT
Nautical Twilight 6:33 AM CDT 8:06 PM CDT
Astronomical Twilight 6:05 AM CDT 8:34 PM CDT
Moon 5:07 AM CDT (10/2) 5:45 PM CDT (10/2)
Length of Visible Light 12h 37m
Length of Day
11h 49m
Waning Crescent, 6% of the Moon is Illuminated
Oct 2
Waning Crescent
Oct 4
New
Oct 11
First Quarter
Oct 18
Full
Oct 26
Last Quarter

Hourly Weather History & Observations

Time (CDT) Temp. Heat Index Dew Point Humidity Pressure Visibility Wind Dir Wind Speed Gust Speed Precip Events Conditions
12:15 AM 75.2 °F - 71.6 °F 89% 29.94 in 10.0 mi SSE 8.1 mph - N/A   Overcast
12:35 AM 75.2 °F - 71.6 °F 89% 29.94 in 10.0 mi SSE 6.9 mph - N/A   Overcast
12:55 AM 77.0 °F - 71.6 °F 83% 29.94 in 10.0 mi SSE 11.5 mph 16.1 mph N/A   Overcast
1:15 AM 75.2 °F - 71.6 °F 89% 29.94 in 10.0 mi SSE 10.4 mph - N/A   Overcast
1:35 AM 75.2 °F - 71.6 °F 89% 29.94 in 10.0 mi SSE 11.5 mph - N/A   Overcast
1:55 AM 75.2 °F - 71.6 °F 89% 29.95 in 10.0 mi South 9.2 mph - N/A   Overcast
2:15 AM 75.2 °F - 71.6 °F 89% 29.95 in 10.0 mi South 8.1 mph - N/A   Overcast
2:35 AM 75.2 °F - 71.6 °F 89% 29.95 in 10.0 mi SSE 8.1 mph - N/A   Overcast
2:55 AM 75.2 °F - 71.6 °F 89% 29.94 in 10.0 mi South 6.9 mph - N/A   Overcast
3:15 AM 75.2 °F - 71.6 °F 89% 29.94 in 10.0 mi SSE 6.9 mph - N/A   Overcast
3:35 AM 75.2 °F - 71.6 °F 89% 29.94 in 10.0 mi South 8.1 mph - N/A   Overcast
3:55 AM 75.2 °F - 71.6 °F 89% 29.94 in 10.0 mi SSE 4.6 mph - N/A   Overcast
4:15 AM 75.2 °F - 71.6 °F 89% 29.94 in 10.0 mi SE 4.6 mph - N/A   Overcast
4:35 AM 75.2 °F - 71.6 °F 89% 29.93 in 10.0 mi SSE 5.8 mph - N/A   Overcast
4:55 AM 75.2 °F - 71.6 °F 89% 29.93 in 10.0 mi SSE 4.6 mph - N/A   Overcast
5:15 AM 75.2 °F - 71.6 °F 89% 29.94 in 10.0 mi SSE 5.8 mph - N/A   Overcast
5:35 AM 75.2 °F - 71.6 °F 89% 29.94 in 10.0 mi SSE 5.8 mph - N/A   Overcast
5:55 AM 73.4 °F - 71.6 °F 94% 29.94 in 10.0 mi SE 6.9 mph - N/A   Overcast
6:15 AM 73.4 °F - 71.6 °F 94% 29.95 in 10.0 mi SE 5.8 mph - N/A   Overcast
6:35 AM 73.4 °F - 71.6 °F 94% 29.95 in 10.0 mi SE 4.6 mph - N/A   Overcast
6:49 AM 73.4 °F - 71.6 °F 94% 29.95 in 10.0 mi SE 5.8 mph - N/A   Overcast
7:48 AM 73.4 °F - 71.6 °F 94% 29.96 in 5.0 mi SE 4.6 mph - N/A   Overcast
8:48 AM 75.2 °F - 71.6 °F 89% 29.98 in 10.0 mi SE 4.6 mph - N/A   Overcast
9:49 AM 75.2 °F - 71.6 °F 89% 29.99 in 5.0 mi SE 5.8 mph - N/A   Overcast
10:46 AM 77.0 °F - 73.4 °F 89% 29.99 in 10.0 mi SE 4.6 mph - N/A   Overcast
11:48 AM 80.6 °F 84.6 °F 71.6 °F 74% 29.98 in 10.0 mi South 10.4 mph - N/A   Overcast
12:49 PM 84.2 °F 89.6 °F 71.6 °F 66% 29.96 in 10.0 mi South 8.1 mph - N/A   Mostly Cloudy
1:48 PM 86.0 °F 91.8 °F 71.6 °F 62% 29.92 in 10.0 mi SSE 4.6 mph - N/A   Scattered Clouds
2:49 PM 89.6 °F 94.7 °F 69.8 °F 52% 29.89 in 10.0 mi South 9.2 mph - N/A   Scattered Clouds
3:46 PM 89.6 °F 94.7 °F 69.8 °F 52% 29.88 in 10.0 mi SE 5.8 mph - N/A   Mostly Cloudy
4:50 PM 89.6 °F 92.2 °F 66.2 °F 46% 29.87 in 10.0 mi SSE 9.2 mph 16.1 mph N/A   Scattered Clouds
5:47 PM 89.6 °F 93.4 °F 68.0 °F 49% 29.86 in 10.0 mi SSE 9.2 mph - N/A   Scattered Clouds
6:48 PM 87.8 °F 90.4 °F 66.2 °F 49% 29.86 in 10.0 mi SE 5.8 mph - N/A   Partly Cloudy
7:48 PM 80.6 °F 84.6 °F 71.6 °F 74% 29.88 in 10.0 mi ESE 6.9 mph - N/A   Scattered Clouds
8:48 PM 78.8 °F - 71.6 °F 78% 29.91 in 10.0 mi ESE 5.8 mph - N/A   Partly Cloudy
9:48 PM 78.8 °F - 71.6 °F 78% 29.92 in 10.0 mi SE 8.1 mph - N/A   Mostly Cloudy
10:15 PM 77.0 °F - 71.6 °F 83% 29.93 in 10.0 mi SE 6.9 mph - N/A   Scattered Clouds
10:35 PM 78.8 °F - 71.6 °F 78% 29.93 in 10.0 mi SE 8.1 mph - N/A   Overcast
10:55 PM 77.0 °F - 71.6 °F 83% 29.93 in 10.0 mi SE 6.9 mph - N/A   Mostly Cloudy
11:15 PM 77.0 °F - 71.6 °F 83% 29.94 in 10.0 mi SE 8.1 mph - N/A   Scattered Clouds
11:35 PM 77.0 °F - 73.4 °F 89% 29.94 in 10.0 mi SE 6.9 mph - N/A   Mostly Cloudy
11:55 PM 78.8 °F - 73.4 °F 83% 29.94 in 10.0 mi SSE 10.4 mph - N/A   Overcast